Espaço - Ciências - Fenômenos Naturais
Meteógrafos Informações Meteorológicas em tempo real

Aeroporto de Porto Seguro

Histórico do Tempo
Temperatura atual: 24 graus 75 F    Umidade relativa: 88 %
Velocidade do vento: 02 nós 3 Km/h    Direção: 260 graus W
Ajuste do altímetro ..: 1015 HPA
Visibilidade: Ótima    Tempo presente: Não Disponível

Observação
Poucas nuvens a 2000 Pés.

Data Hora BRTTempo°CUmidadePressãoVentoVisib.
24/05 - 07:56   Não Disponível 24° 88% 1015 Oeste/3 km/h OK
24/05 - 06:56   Poucas nuvens esparsas 21° 94% 1014 Oeste/5 km/h OK
24/05 - 05:56   Não Disponível 22° 88% 1014 Oeste-noroeste/5 km/h OK
24/05 - 04:56   Não Disponível 22° 94% 1014 Oeste-noroeste/5 km/h OK
24/05 - 03:56   Céu Limpo 21° 94% 1013 Oeste/5 km/h OK
24/05 - 02:56   Céu Limpo 22° 94% 1013 Oeste/3 km/h OK
24/05 - 01:56   Não Disponível 21° 94% 1014 Oeste-noroeste/5 km/h OK
24/05 - 00:56   Não Disponível 23° 88% 1014 Norte-noroeste/5 km/h OK
23/05 - 23:56   Não Disponível 22° 94% 1014 Oeste-noroeste/3 km/h OK
23/05 - 22:56   Não Disponível 23° 88% 1014 Norte/0 km/h OK
23/05 - 21:56   Não Disponível 25° 78% 1014 Nordeste/5 km/h OK
23/05 - 20:56   Não Disponível 26° 78% 1014 Nordeste/7 km/h OK
23/05 - 19:56   Não Disponível 26° 78% 1014 Nordeste/7 km/h OK
23/05 - 18:56   Não Disponível 26° 78% 1014 Nordeste/7 km/h 9999
23/05 - 17:56   Não Disponível 27° 69% 1013 Este-nordeste/12 km/h OK
23/05 - 16:56   Não Disponível 27° 69% 1013 Este-nordeste/12 km/h OK
23/05 - 15:56   Poucas nuvens esparsas 28° 70% 1013 Leste/14 km/h 9999
23/05 - 14:56   Poucas nuvens esparsas 28° 70% 1013 Leste/14 km/h 9999
23/05 - 13:56   Poucas nuvens esparsas 28° 70% 1014 Leste/16 km/h OK
23/05 - 12:56   Poucas nuvens esparsas 29° 62% 1014 Leste/16 km/h 9999
23/05 - 11:56   Poucas nuvens esparsas 29° 62% 1015 Este-nordeste/16 km/h 9999
23/05 - 10:56   Poucas nuvens esparsas 29° 62% 1016 Leste/12 km/h OK
23/05 - 09:56   Poucas nuvens esparsas 29° 62% 1017 Este-nordeste/12 km/h OK
23/05 - 08:56   Poucas nuvens esparsas 26° 83% 1017 Oeste-sudoeste/5 km/h OK


Apolo11.com - Todos os direitos reservados - 2000 - 2019
Política de Privacidade   |     Termo de Uso e Licenciamento   |  -   Entre em Contato

"Política é a guerra sem sangue enquanto a guerra é a política com sangue" - Mao Tsé-Tung